CQ0XBF-11 Chamusca PT current weather conditions

sailwx.info

Wind from 194 at 0 knots gusting 6

Air temperature 20.0° C
Dewpoint 13.7° C

Last reported at 2016-Jun-28 04:45 UTC.
Time now 2016-Jun-28 06:02 UTC

Location: N 39°21' W 008°28'.
View on Google Maps.

See reports from other nearby stations

  
Tides and Currents Weather Stations Pressure Air Temp Water Temp Dewpoint Dewpoint Depression Visibility Wind Speed Wind Dir Waves Ship Positions
date/time (UTC)wind fromknots sea level pressurealtimeterstation pressurevisibilityair tempwater tempwave heightnotes
2016-Jun-28 04:45 194 0 gusting 6 20.0
2016-Jun-28 04:39 323 6 gusting 6 20.0
2016-Jun-28 04:35 292 3 gusting 6 20.0
2016-Jun-28 04:29 049 20.0
2016-Jun-28 04:25 337 4 gusting 6 20.0
2016-Jun-28 04:21 284 1 gusting 6 20.0
2016-Jun-28 04:15 330 3 gusting 7 20.6
2016-Jun-28 04:11 061 0 gusting 5 20.6
2016-Jun-28 04:04 270 20.6
2016-Jun-28 04:00 305 2 gusting 6 20.6
2016-Jun-28 03:54 222 0 gusting 6 20.6
2016-Jun-28 03:50 323 2 gusting 4 20.6
2016-Jun-28 03:44 239 2 gusting 6 20.6
2016-Jun-28 03:40 307 6 gusting 6 20.6
2016-Jun-28 03:34 253 1 gusting 8 21.1
2016-Jun-28 03:30 317 2 gusting 6 21.1
2016-Jun-28 03:24 095 1 gusting 5 21.1
2016-Jun-28 03:20 330 0 gusting 4 21.1
2016-Jun-28 03:14 237 1 gusting 4 21.1
2016-Jun-28 03:10 278 21.1
2016-Jun-28 03:06 272 0 gusting 4 21.1
2016-Jun-28 03:00 305 1 gusting 5 21.1
2016-Jun-28 02:56 270 21.1
2016-Jun-28 02:50 282 1 gusting 5 21.7
2016-Jun-28 02:45 303 2 gusting 6 21.7
2016-Jun-28 02:39 331 1 gusting 4 21.7
2016-Jun-28 02:35 299 0 gusting 6 21.7
2016-Jun-28 02:29 315 3 gusting 6 21.7
2016-Jun-28 02:25 240 0 gusting 5 21.7
2016-Jun-28 02:19 251 2 gusting 6 21.7
2016-Jun-28 02:15 215 21.7
2016-Jun-28 02:09 303 1 gusting 4 22.2
2016-Jun-28 02:05 305 2 gusting 5 22.2
2016-Jun-28 01:59 288 2 gusting 5 22.2
2016-Jun-28 01:55 307 2 gusting 3 22.2
2016-Jun-28 01:51 295 0 gusting 4 22.2
2016-Jun-28 01:45 054 1 gusting 3 22.2
2016-Jun-28 01:41 232 22.2
2016-Jun-28 01:35 267 2 gusting 3 22.2
2016-Jun-28 01:30 320 1 gusting 6 22.2
2016-Jun-28 01:24 021 2 gusting 6 22.2
2016-Jun-28 01:20 313 4 gusting 5 22.8
2016-Jun-28 01:14 216 0 gusting 5 22.8
2016-Jun-28 01:10 295 3 gusting 6 22.2
2016-Jun-28 01:04 099 1 gusting 6 22.8
2016-Jun-28 01:00 309 3 gusting 5 22.8
2016-Jun-28 00:54 319 3 gusting 6 22.8
2016-Jun-28 00:50 320 3 gusting 4 22.8
2016-Jun-28 00:44 306 0 gusting 6 22.8
2016-Jun-28 00:40 315 3 gusting 6 22.8
2016-Jun-28 00:36 286 1 gusting 6 23.3
2016-Jun-28 00:28 338 0 gusting 5 23.3
2016-Jun-28 00:26 243 0 gusting 5 23.3
2016-Jun-28 00:20 022 0 gusting 5 23.3
2016-Jun-28 00:16 063 0 gusting 4 23.3
2016-Jun-28 00:09 029 1 gusting 5 23.3
2016-Jun-28 00:05 302 1 gusting 4 23.3
2016-Jun-27 23:59 265 2 gusting 5 23.3
2016-Jun-27 23:55 310 2 gusting 5 23.3
2016-Jun-27 23:49 295 2 gusting 6 23.3
2016-Jun-27 23:43 307 4 gusting 6 23.9
2016-Jun-27 23:39 347 3 gusting 6 23.9
2016-Jun-27 23:35 227 1 gusting 6 23.9
2016-Jun-27 23:29 352 1 gusting 6 23.9
2016-Jun-27 23:25 324 4 gusting 6 23.9
2016-Jun-27 23:21 312 2 gusting 6 23.9
2016-Jun-27 23:15 307 3 gusting 6 24.4
2016-Jun-27 23:11 296 2 gusting 6 24.4
2016-Jun-27 23:05 307 3 gusting 7 24.4
2016-Jun-27 23:01 303 4 gusting 6 25.0
2016-Jun-27 22:54 289 1 gusting 5 25.0
2016-Jun-27 22:50 299 2 gusting 6 25.0
2016-Jun-27 22:44 251 0 gusting 6 25.0
2016-Jun-27 22:40 307 2 gusting 6 25.6
2016-Jun-27 22:34 292 3 gusting 5 25.6
2016-Jun-27 22:28 201 0 gusting 6 25.6
2016-Jun-27 22:24 309 0 gusting 6 26.1
2016-Jun-27 22:20 237 1 gusting 4 26.1
2016-Jun-27 22:14 021 0 gusting 3 26.1
2016-Jun-27 22:10 306 1 gusting 4 26.1
2016-Jun-27 22:04 295 26.1
2016-Jun-27 22:00 312 2 gusting 3 26.7
2016-Jun-27 21:56 251 1 gusting 4 26.7
2016-Jun-27 21:48 284 3 gusting 6 26.7
2016-Jun-27 21:46 223 2 gusting 6 26.7
2016-Jun-27 21:40 291 2 gusting 4 26.7
2016-Jun-27 21:35 277 26.7
2016-Jun-27 21:29 188 1 gusting 5 26.7
2016-Jun-27 21:25 313 1 gusting 3 27.2
2016-Jun-27 21:19 191 27.2
2016-Jun-27 21:15 307 2 gusting 5 27.2
2016-Jun-27 21:09 313 4 gusting 4 27.2
2016-Jun-27 21:05 262 27.8
2016-Jun-27 20:59 305 2 gusting 5 27.8
2016-Jun-27 20:55 254 0 gusting 6 27.8
2016-Jun-27 20:49 291 2 gusting 5 27.2
2016-Jun-27 20:45 329 2 gusting 5 27.8
2016-Jun-27 20:41 330 4 gusting 6 27.8
2016-Jun-27 20:35 288 2 gusting 7 27.8
2016-Jun-27 20:31 324 2 gusting 6 27.8
2016-Jun-27 20:25 333 2 gusting 6 28.3
2016-Jun-27 20:20 295 2 gusting 7 28.3
2016-Jun-27 20:14 331 3 gusting 6 28.3
2016-Jun-27 20:10 316 3 gusting 7 28.9
2016-Jun-27 20:04 025 2 gusting 6 28.9
2016-Jun-27 20:00 004 0 gusting 6 28.9
2016-Jun-27 19:54 299 1 gusting 6 28.9
2016-Jun-27 19:50 274 4 gusting 7 28.9
2016-Jun-27 19:44 316 3 gusting 7 29.4
2016-Jun-27 19:40 042 2 gusting 7 29.4
2016-Jun-27 19:34 323 5 gusting 6 30.0
2016-Jun-27 19:30 312 1 gusting 6 30.0
2016-Jun-27 19:26 352 3 gusting 8 30.0
2016-Jun-27 19:20 319 1 gusting 6 30.6
2016-Jun-27 19:16 341 2 gusting 6 31.1
2016-Jun-27 19:10 305 0 gusting 6 31.1
2016-Jun-27 19:06 312 3 gusting 6 31.7
2016-Jun-27 18:59 296 0 gusting 6 31.7
2016-Jun-27 18:55 203 31.7
2016-Jun-27 18:49 331 2 gusting 6 32.2
2016-Jun-27 18:45 333 2 gusting 7 32.2
2016-Jun-27 18:39 326 2 gusting 9 32.2
2016-Jun-27 18:35 316 6 gusting 9 32.2
2016-Jun-27 18:29 126 0 gusting 7 32.8
2016-Jun-27 18:25 312 6 gusting 6 32.8
2016-Jun-27 18:17 059 0 gusting 7 33.3
2016-Jun-27 18:15 052 0 gusting 7 33.3
2016-Jun-27 18:09 323 2 gusting 7 33.3
2016-Jun-27 18:05 149 3 gusting 9 33.3
2016-Jun-27 18:01 053 4 gusting 8 33.9
2016-Jun-27 17:55 317 4 gusting 6 34.4
2016-Jun-27 17:51 358 2 gusting 6 34.4
2016-Jun-27 17:44 319 4 gusting 7 34.4
2016-Jun-27 17:40 313 3 gusting 9 34.4
2016-Jun-27 17:34 307 6 gusting 8 35.0
2016-Jun-27 17:30 052 0 gusting 5 35.6
2016-Jun-27 17:24 317 3 gusting 6 35.6
2016-Jun-27 17:20 054 4 gusting 11 35.0
2016-Jun-27 17:14 338 5 gusting 6 35.6
2016-Jun-27 17:10 310 3 gusting 7 35.6
2016-Jun-27 17:04 292 3 gusting 8 35.6
2016-Jun-27 17:00 011 3 gusting 8 36.1
2016-Jun-27 16:54 333 3 gusting 10 36.1
2016-Jun-27 16:50 236 1 gusting 9 36.7
2016-Jun-27 16:46 358 3 gusting 9 36.7
2016-Jun-27 16:40 298 8 gusting 7 37.8
2016-Jun-27 16:36 324 5 gusting 8 37.8
2016-Jun-27 16:30 358 1 gusting 10 37.8
2016-Jun-27 16:25 319 2 gusting 6 37.2
2016-Jun-27 16:19 336 0 gusting 8 37.2
2016-Jun-27 16:15 327 2 gusting 9 37.2
2016-Jun-27 16:09 345 4 gusting 10 37.2
2016-Jun-27 16:05 009 3 gusting 9 37.2
2016-Jun-27 15:59 333 3 gusting 8 37.2
2016-Jun-27 15:53 264 5 gusting 8 37.8
2016-Jun-27 15:49 324 5 gusting 8 37.8
2016-Jun-27 15:45 313 6 gusting 9 37.2
2016-Jun-27 15:39 345 6 gusting 11 37.2
2016-Jun-27 15:35 288 3 gusting 6 37.2
2016-Jun-27 15:29 344 4 gusting 6 37.8
2016-Jun-27 15:25 306 3 gusting 7 37.8
2016-Jun-27 15:21 291 3 gusting 7 37.2
2016-Jun-27 15:15 312 3 gusting 9 36.7
2016-Jun-27 15:10 322 6 gusting 10 36.7
2016-Jun-27 15:04 333 6 gusting 9 37.2
2016-Jun-27 15:00 313 6 gusting 8 37.2
2016-Jun-27 14:54 286 3 gusting 7 37.2
2016-Jun-27 14:50 215 1 gusting 8 37.2
2016-Jun-27 14:44 315 8 gusting 9 37.2
2016-Jun-27 14:40 319 1 gusting 6 37.2
2016-Jun-27 14:34 330 0 gusting 10 37.2
2016-Jun-27 14:30 330 5 gusting 8 37.2
2016-Jun-27 14:24 326 3 gusting 6 37.8
2016-Jun-27 14:20 313 5 gusting 6 37.8
2016-Jun-27 14:16 116 0 gusting 7 37.2
2016-Jun-27 14:10 277 4 gusting 7 37.2
2016-Jun-27 14:06 282 3 gusting 6 37.2
2016-Jun-27 14:00 352 4 gusting 7 37.2
2016-Jun-27 13:56 323 3 gusting 6 37.2
2016-Jun-27 13:49 316 3 gusting 5 37.2
2016-Jun-27 13:45 014 36.7
2016-Jun-27 13:39 285 2 gusting 8 36.1
2016-Jun-27 13:35 310 6 gusting 7 36.1
2016-Jun-27 13:29 338 6 gusting 7 35.6
2016-Jun-27 13:25 319 5 gusting 8 35.6
2016-Jun-27 13:19 302 7 gusting 6 35.6
2016-Jun-27 13:15 323 5 gusting 10 35.6
2016-Jun-27 13:09 331 2 gusting 6 35.6
2016-Jun-27 13:05 358 1 gusting 7 36.1
2016-Jun-27 12:59 326 4 gusting 7 35.6
2016-Jun-27 12:55 348 4 gusting 8 35.6
2016-Jun-27 12:51 315 3 gusting 8 35.0
2016-Jun-27 12:45 340 2 gusting 6 35.0
2016-Jun-27 12:41 320 3 gusting 7 35.0
2016-Jun-27 12:34 001 1 gusting 6 34.4
2016-Jun-27 12:30 036 3 gusting 6 34.4
2016-Jun-27 12:24 305 2 gusting 6 34.4
2016-Jun-27 12:20 326 4 gusting 7 34.4
2016-Jun-27 12:14 351 2 gusting 5 35.0
2016-Jun-27 12:10 322 1 gusting 6 34.4
2016-Jun-27 12:04 001 0 gusting 6 33.9
2016-Jun-27 12:00 132 33.9
2016-Jun-27 11:54 323 33.3
2016-Jun-27 11:50 071 3 gusting 7 32.8
2016-Jun-27 11:44 330 3 gusting 6 32.8
2016-Jun-27 11:40 289 2 gusting 6 32.2
2016-Jun-27 11:36 336 0 gusting 6 32.2
2016-Jun-27 11:30 014 1 gusting 7 32.8
2016-Jun-27 11:26 011 0 gusting 5 32.8
2016-Jun-27 11:20 307 2 gusting 5 32.8
2016-Jun-27 11:15 323 0 gusting 6 32.2
2016-Jun-27 11:09 277 32.2
2016-Jun-27 11:05 341 1 gusting 6 31.7
2016-Jun-27 10:59 329 3 gusting 6 31.7
2016-Jun-27 10:55 267 1 gusting 6 31.7
2016-Jun-27 10:49 351 1 gusting 6 31.1
2016-Jun-27 10:45 315 1 gusting 6 31.7
2016-Jun-27 10:39 355 2 gusting 5 31.1
2016-Jun-27 10:35 291 30.6
2016-Jun-27 10:29 286 0 gusting 6 30.6
2016-Jun-27 10:25 324 4 gusting 4 30.6
2016-Jun-27 10:21 329 30.6
2016-Jun-27 10:15 337 30.0
2016-Jun-27 10:11 333 1 gusting 3 30.0
2016-Jun-27 10:05 331 1 gusting 4 29.4
2016-Jun-27 10:01 288 0 gusting 5 29.4
2016-Jun-27 09:54 316 1 gusting 3 29.4
2016-Jun-27 09:50 296 29.4
2016-Jun-27 09:44 309 29.4
2016-Jun-27 09:40 292 28.9
2016-Jun-27 09:34 300 28.9
2016-Jun-27 09:30 337 28.3
2016-Jun-27 09:24 319 28.3
2016-Jun-27 09:20 28.3
2016-Jun-27 09:14 272 27.8
2016-Jun-27 09:10 275 27.8
2016-Jun-27 09:06 313 1 gusting 2 27.2
2016-Jun-27 09:00 001 0 gusting 3 26.7
2016-Jun-27 08:56 324 1 gusting 2 26.7
2016-Jun-27 08:50 327 26.7
2016-Jun-27 08:46 329 26.7
2016-Jun-27 08:39 316 1 gusting 0 26.1
2016-Jun-27 08:35 299 0 gusting 2 26.1
2016-Jun-27 08:29 334 26.1
2016-Jun-27 08:25 082 26.1
2016-Jun-27 08:19 274 25.6
2016-Jun-27 08:15 352 25.0
2016-Jun-27 08:09 338 1 gusting 4 25.0
2016-Jun-27 08:05 319 3 gusting 3 25.6
2016-Jun-27 07:59 337 0 gusting 3 25.6
2016-Jun-27 07:55 306 2 gusting 2 26.1
2016-Jun-27 07:49 254 26.7
2016-Jun-27 07:45 002 26.7
2016-Jun-27 07:41 331 27.2
2016-Jun-27 07:35 331 0 27.2
2016-Jun-27 07:31 090 26.7
2016-Jun-27 07:25 090 26.1
2016-Jun-27 07:20 037 25.6
2016-Jun-27 07:14 088 0 gusting 1 26.7
2016-Jun-27 07:10 146 26.7
2016-Jun-27 07:04 104 0 gusting 2 25.6
2016-Jun-27 07:00 090 1 gusting 3 24.4
2016-Jun-27 06:54 099 0 gusting 2 24.4
2016-Jun-27 06:50 068 23.3
2016-Jun-27 06:44 157 21.7
2016-Jun-27 06:40 070 0 gusting 1 20.6
2016-Jun-27 06:34 310 20.6
2016-Jun-27 06:30 275 20.0
2016-Jun-27 06:26 109 20.0
2016-Jun-27 06:20 206 0 gusting 3 20.0
2016-Jun-27 06:16 050 20.0
2016-Jun-27 06:10 095 0 gusting 1 20.0
2016-Jun-27 06:05 268 20.0
2016-Jun-27 05:59 331 20.0
2016-Jun-27 05:55 037 0 gusting 1 20.0
2016-Jun-27 05:49 078 20.0
2016-Jun-27 05:45 258 20.0
2016-Jun-27 05:39 126 20.0
2016-Jun-27 05:35 330 20.0
2016-Jun-27 05:29 279 0 gusting 1 20.0
2016-Jun-27 05:25 035 20.0
2016-Jun-27 05:19 337 0 gusting 1 20.0
2016-Jun-27 05:15 095 0 gusting 1 20.0
2016-Jun-27 05:11 080 1 gusting 0 20.0
2016-Jun-27 05:05 312 20.0
2016-Jun-27 05:01 288 20.6
2016-Jun-27 04:55 295 0 gusting 3 20.6
2016-Jun-27 04:51 195 20.6
2016-Jun-27 04:44 326 0 gusting 4 20.6
2016-Jun-27 04:40 348 0 gusting 3 20.6
2016-Jun-27 04:34 057 0 gusting 3 20.6
2016-Jun-27 04:30 288 0 gusting 3 20.6
2016-Jun-27 04:24 143 0 gusting 3 20.6
2016-Jun-27 04:20 068 20.6
2016-Jun-27 04:14 310 1 gusting 3 20.6
2016-Jun-27 04:10 059 20.6
2016-Jun-27 04:04 039 20.6
2016-Jun-27 04:00 323 20.6
2016-Jun-27 03:54 312 2 gusting 3 20.6
2016-Jun-27 03:50 033 20.6
2016-Jun-27 03:46 324 21.1
2016-Jun-27 03:40 306 21.1
2016-Jun-27 03:36 008 21.1
2016-Jun-27 03:29 272 0 gusting 3 21.1
2016-Jun-27 03:25 288 21.1
2016-Jun-27 03:19 112 21.1
2016-Jun-27 03:15 315 0 gusting 1 21.1
2016-Jun-27 03:09 116 0 gusting 2 21.1
2016-Jun-27 03:05 077 21.1
2016-Jun-27 02:59 095 0 gusting 1 21.1
2016-Jun-27 02:55 095 21.1
2016-Jun-27 02:49 201 21.1
2016-Jun-27 02:45 253 21.1
2016-Jun-27 02:39 244 21.1
2016-Jun-27 02:35 337 21.7
2016-Jun-27 02:31 127 0 gusting 1 21.7
2016-Jun-27 02:25 033 21.7
2016-Jun-27 02:21 022 21.7
2016-Jun-27 02:14 102 3 gusting 4 21.7
2016-Jun-27 02:10 080 3 gusting 4 21.7
2016-Jun-27 02:04 088 0 gusting 2 21.7
2016-Jun-27 01:58 170 21.7
2016-Jun-27 01:54 063 21.7
2016-Jun-27 01:50 233 21.7
2016-Jun-27 01:44 296 1 gusting 2 21.7
2016-Jun-27 01:40 316 21.7
2016-Jun-27 01:34 255 21.7
2016-Jun-27 01:30 071 21.7
2016-Jun-27 01:26 292 21.7
2016-Jun-27 01:20 136 0 gusting 1 21.7
2016-Jun-27 01:16 123 21.7
2016-Jun-27 01:10 001 21.7
2016-Jun-27 01:06 338 4 gusting 3 22.2
2016-Jun-27 00:59 310 2 gusting 4 22.2
2016-Jun-27 00:55 007 1 gusting 3 22.2
2016-Jun-27 00:49 317 22.2
2016-Jun-27 00:45 303 22.2
2016-Jun-27 00:39 340 22.2
2016-Jun-27 00:33 331 22.8
2016-Jun-27 00:29 319 0 gusting 0 22.8
2016-Jun-27 00:25 206 22.8
2016-Jun-27 00:19 234 22.8
2016-Jun-27 00:15 260 22.8
2016-Jun-27 00:09 306 1 gusting 1 22.8
2016-Jun-27 00:05 198 0 gusting 3 22.8
2016-Jun-27 00:01 358 0 gusting 2 22.8
2016-Jun-26 23:55 213 23.3
2016-Jun-26 23:51 202 0 gusting 1 23.3
2016-Jun-26 23:44 157 23.3
2016-Jun-26 23:40 291 0 gusting 2 23.3
2016-Jun-26 23:34 344 1 gusting 3 23.9
2016-Jun-26 23:30 206 23.9
2016-Jun-26 23:24 334 1 gusting 3 23.9
2016-Jun-26 23:20 217 0 gusting 3 23.9
2016-Jun-26 23:14 272 0 gusting 3 23.9
2016-Jun-26 23:10 341 2 gusting 4 23.9
2016-Jun-26 23:04 316 1 gusting 5 23.9
2016-Jun-26 23:00 316 3 gusting 3 23.9
2016-Jun-26 22:54 305 23.9
2016-Jun-26 22:50 319 2 gusting 5 23.9
2016-Jun-26 22:46 307 3 gusting 5 23.9
2016-Jun-26 22:40 298 1 gusting 4 24.4
2016-Jun-26 22:36 298 2 gusting 3 24.4
2016-Jun-26 22:30 260 2 gusting 5 24.4
2016-Jun-26 22:25 011 24.4
2016-Jun-26 22:19 315 3 gusting 6 24.4
2016-Jun-26 22:15 243 0 gusting 5 24.4
2016-Jun-26 22:09 315 1 gusting 5 25.0
2016-Jun-26 22:05 302 2 gusting 4 25.0
2016-Jun-26 21:59 320 2 gusting 6 25.0
2016-Jun-26 21:55 160 25.0
2016-Jun-26 21:49 309 4 gusting 4 25.0
2016-Jun-26 21:45 345 2 gusting 4 25.0
2016-Jun-26 21:39 327 1 gusting 3 25.0
2016-Jun-26 21:35 241 25.0
2016-Jun-26 21:31 302 0 gusting 5 25.0
2016-Jun-26 21:25 317 1 gusting 4 25.6
2016-Jun-26 21:21 264 0 gusting 4 25.6
2016-Jun-26 21:15 307 3 gusting 5 25.6
2016-Jun-26 21:10 303 1 gusting 5 25.6
2016-Jun-26 21:04 344 3 gusting 6 25.6
2016-Jun-26 21:00 315 2 gusting 5 25.6
2016-Jun-26 20:54 261 1 gusting 5 25.6
2016-Jun-26 20:50 289 1 gusting 5 25.6
2016-Jun-26 20:44 315 2 gusting 6 25.6
2016-Jun-26 20:40 317 3 gusting 5 26.1
2016-Jun-26 20:34 317 3 gusting 5 25.6
2016-Jun-26 20:30 021 1 gusting 6 26.1
2016-Jun-26 20:24 338 3 gusting 6 26.1
2016-Jun-26 20:20 358 0 gusting 6 26.1
2016-Jun-26 20:16 334 3 gusting 7 26.1
2016-Jun-26 20:10 316 1 gusting 6 26.7
2016-Jun-26 20:06 327 2 gusting 8 26.7
2016-Jun-26 20:00 018 6 gusting 7 26.7
2016-Jun-26 19:56 320 5 gusting 8 26.7
2016-Jun-26 19:49 358 2 gusting 11 26.7
2016-Jun-26 19:45 320 5 gusting 11 27.2
2016-Jun-26 19:39 337 6 gusting 6 27.2
2016-Jun-26 19:35 324 4 gusting 7 27.8
2016-Jun-26 19:29 002 3 gusting 12 27.8
2016-Jun-26 19:25 323 9 gusting 9 27.8
2016-Jun-26 19:19 319 4 gusting 7 28.3
2016-Jun-26 19:15 336 3 gusting 10 28.3
2016-Jun-26 19:09 310 2 gusting 10 28.9
2016-Jun-26 19:05 317 9 gusting 14 28.9
2016-Jun-26 18:59 333 6 gusting 9 29.4
2016-Jun-26 18:53 281 2 gusting 10 30.0
2016-Jun-26 18:51 336 6 gusting 10 30.0
2016-Jun-26 18:45 309 6 gusting 11 30.0
2016-Jun-26 18:41 307 2 gusting 12 30.6
2016-Jun-26 18:34 355 6 gusting 6 31.1
2016-Jun-26 18:30 316 2 gusting 7 31.7
2016-Jun-26 18:24 358 3 gusting 9 31.7
2016-Jun-26 18:20 307 3 gusting 7 31.7
2016-Jun-26 18:14 316 3 gusting 8 31.7
2016-Jun-26 18:10 334 5 gusting 7 32.2
2016-Jun-26 18:04 009 2 gusting 10 31.7
2016-Jun-26 18:00 012 6 gusting 13 31.7
2016-Jun-26 17:54 329 7 gusting 12 31.7
2016-Jun-26 17:50 347 5 gusting 10 31.7
2016-Jun-26 17:46 357 6 gusting 13 32.2
2016-Jun-26 17:40 317 3 gusting 11 32.8
2016-Jun-26 17:36 347 4 gusting 10 32.8
2016-Jun-26 17:30 313 6 gusting 11 32.8
2016-Jun-26 17:26 309 8 gusting 13 32.8
2016-Jun-26 17:19 315 8 gusting 11 32.8
2016-Jun-26 17:15 324 7 gusting 12 33.3
2016-Jun-26 17:09 313 5 gusting 9 33.9
2016-Jun-26 17:05 309 4 gusting 9 33.9
2016-Jun-26 16:59 319 5 gusting 7 34.4
2016-Jun-26 16:55 323 3 gusting 8 34.4
2016-Jun-26 16:49 284 4 gusting 10 34.4
2016-Jun-26 16:45 293 4 gusting 5 35.6
2016-Jun-26 16:39 329 3 gusting 6 35.6
2016-Jun-26 16:35 326 3 gusting 7 35.0
2016-Jun-26 16:29 303 4 gusting 7 35.6
2016-Jun-26 16:25 312 2 gusting 6 36.7
2016-Jun-26 16:21 331 0 gusting 5 36.1
2016-Jun-26 16:15 260 0 gusting 4 36.1
2016-Jun-26 16:11 203 1 gusting 10 35.0
2016-Jun-26 16:05 334 6 gusting 9 35.0
2016-Jun-26 16:00 327 5 gusting 8 35.0
2016-Jun-26 15:54 299 4 gusting 6 36.1
2016-Jun-26 15:50 284 1 gusting 6 36.1
2016-Jun-26 15:44 262 1 gusting 6 36.7
2016-Jun-26 15:40 223 0 gusting 9 36.1
2016-Jun-26 15:34 358 1 gusting 7 36.1
2016-Jun-26 15:30 007 2 gusting 5 36.7
2016-Jun-26 15:24 330 2 gusting 3 37.2
2016-Jun-26 15:20 033 1 gusting 5 36.7
2016-Jun-26 15:14 324 1 gusting 6 35.6
2016-Jun-26 15:10 323 2 gusting 6 35.6
2016-Jun-26 15:06 022 2 gusting 9 35.0
2016-Jun-26 15:00 326 3 gusting 8 34.4
2016-Jun-26 14:56 299 6 gusting 9 35.0
2016-Jun-26 14:50 344 1 gusting 5 36.1
2016-Jun-26 14:45 043 2 gusting 7 36.1
2016-Jun-26 14:39 320 35.6
2016-Jun-26 14:35 350 1 gusting 8 35.0
2016-Jun-26 14:29 317 5 gusting 10 34.4
2016-Jun-26 14:25 329 5 gusting 10 34.4
2016-Jun-26 14:19 326 3 gusting 5 35.6
2016-Jun-26 14:15 315 4 gusting 5 36.1
2016-Jun-26 14:09 260 0 gusting 8 35.6
2016-Jun-26 14:05 201 0 gusting 7 35.0
2016-Jun-26 13:59 309 6 gusting 6 35.0
2016-Jun-26 13:55 286 5 gusting 3 35.0
2016-Jun-26 13:51 243 0 gusting 7 34.4
2016-Jun-26 13:45 323 6 gusting 8 34.4
2016-Jun-26 13:41 011 3 gusting 6 34.4
2016-Jun-26 13:35 042 33.9
2016-Jun-26 13:31 295 3 gusting 6 34.4
2016-Jun-26 13:24 216 0 gusting 6 34.4
2016-Jun-26 13:20 237 0 gusting 6 34.4
2016-Jun-26 13:14 109 0 gusting 4 33.9
2016-Jun-26 13:10 009 1 gusting 7 33.3
2016-Jun-26 13:04 338 0 gusting 7 33.3
2016-Jun-26 13:00 313 1 gusting 6 33.3
2016-Jun-26 12:54 310 32.8
2016-Jun-26 12:50 293 0 gusting 6 32.2
2016-Jun-26 12:44 323 5 gusting 7 32.8
2016-Jun-26 12:40 309 4 gusting 6 32.8
2016-Jun-26 12:36 310 2 gusting 7 32.2
2016-Jun-26 12:30 303 3 gusting 7 31.7
2016-Jun-26 12:26 315 5 gusting 8 31.7
2016-Jun-26 12:20 295 0 gusting 6 32.2
2016-Jun-26 12:16 243 31.7
2016-Jun-26 12:09 329 3 gusting 6 31.1
2016-Jun-26 12:05 316 5 gusting 6 31.7
2016-Jun-26 11:59 264 6 gusting 6 30.6
2016-Jun-26 11:55 341 6 gusting 6 30.6
2016-Jun-26 11:49 345 0 gusting 7 30.6
2016-Jun-26 11:45 357 3 gusting 7 30.0
2016-Jun-26 11:39 347 3 gusting 6 30.6
2016-Jun-26 11:33 309 0 gusting 6 30.6
2016-Jun-26 11:29 357 30.0
2016-Jun-26 11:25 334 1 gusting 5 29.4
2016-Jun-26 11:17 317 3 gusting 4 28.9
2016-Jun-26 11:09 011 0 gusting 6 28.9
2016-Jun-26 11:05 310 3 gusting 5 28.3
2016-Jun-26 11:01 306 0 gusting 7 27.8
2016-Jun-26 10:54 305 1 gusting 8 27.2
2016-Jun-26 10:50 312 7 gusting 7 27.2
2016-Jun-26 10:44 291 3 gusting 6 27.2
2016-Jun-26 10:40 333 4 gusting 7 27.2
2016-Jun-26 10:34 327 3 gusting 6 27.2
2016-Jun-26 10:30 305 2 gusting 6 27.8
2016-Jun-26 10:24 291 3 gusting 5 27.8
2016-Jun-26 10:20 327 3 gusting 4 27.2
2016-Jun-26 10:14 275 26.7
2016-Jun-26 10:10 329 3 gusting 4 26.7
2016-Jun-26 10:04 310 2 gusting 6 26.1
2016-Jun-26 10:00 326 3 gusting 6 26.1
2016-Jun-26 09:56 323 2 gusting 5 26.1
2016-Jun-26 09:50 331 1 gusting 4 25.6
2016-Jun-26 09:46 313 2 gusting 4 25.6
2016-Jun-26 09:39 300 4 gusting 5 25.0
2016-Jun-26 09:35 313 25.0
2016-Jun-26 09:29 340 1 gusting 4 25.6
2016-Jun-26 09:25 271 25.6
2016-Jun-26 09:19 203 24.4
2016-Jun-26 09:15 305 24.4
2016-Jun-26 09:09 333 3 gusting 2 23.9
2016-Jun-26 09:05 236 23.9
2016-Jun-26 08:59 327 1 gusting 3 23.3
2016-Jun-26 08:55 329 1 gusting 4 23.3
2016-Jun-26 08:49 205 23.3
2016-Jun-26 08:45 326 1 gusting 3 23.3
2016-Jun-26 08:41 282 0 gusting 4 23.3
2016-Jun-26 08:35 261 23.3
2016-Jun-26 08:31 285 23.3
2016-Jun-26 08:25 005 2 gusting 5 23.3
2016-Jun-26 08:20 323 1 gusting 1 23.3
2016-Jun-26 08:14 345 22.8
2016-Jun-26 08:10 337 2 gusting 5 22.8
2016-Jun-26 08:04 343 0 gusting 1 23.3
2016-Jun-26 08:00 352 23.3
2016-Jun-26 07:54 054 22.8
2016-Jun-26 07:50 354 0 gusting 2 22.8
2016-Jun-26 07:44 073 1 gusting 3 22.8
2016-Jun-26 07:40 326 0 gusting 2 23.3
2016-Jun-26 07:32 009 2 gusting 3 22.8
2016-Jun-26 07:30 101 22.2
2016-Jun-26 07:26 175 22.2
2016-Jun-26 07:20 309 0 gusting 2 22.2
2016-Jun-26 07:16 313 22.8
2016-Jun-26 07:10 337 0 gusting 2 22.2
2016-Jun-26 07:05 344 0 gusting 2 22.8
2016-Jun-26 06:59 343 22.8
2016-Jun-26 06:55 272 0 gusting 2 22.2
2016-Jun-26 06:49 291 20.6
2016-Jun-26 06:45 278 20.0
2016-Jun-26 06:39 074 0 gusting 4 18.3
2016-Jun-26 06:35 021 18.3
2016-Jun-26 06:29 130 18.3
2016-Jun-26 06:25 288 18.3
2016-Jun-26 06:19 300 0 gusting 1 18.3
2016-Jun-26 06:15 084 17.8
2016-Jun-26 06:11 156 0 gusting 3 17.8
2016-Jun-26 06:05 174 17.8
2016-Jun-26 06:01 251 17.8